Vorticity
nan nan nan nan nan nan nan nan nan nan nan nan nan nan nan nan nan nan nan nan nan nan nan nan nan nan nan nan nan nan nan nan nan nan nan nan nan nan nan nan nan nan nan nan nan nan nan nan nan nan nan nan nan nan nan nan nan nan nan nan nan nan nan nan nan nan nan nan nan
nan 7 6 7 8 8 8 8 7 7 7 7 7 7 7 7 8 8 7 8 7 7 7 7 6 4 3 4 6 7 7 7 7 8 8 9 8 8 9 10 8 8 8 9 10 10 10 9 10 10 9 10 10 10 10 9 10 10 10 7 8 13 17 19 16 15 16 18 nan
nan 7 7 8 7 7 7 7 7 7 7 7 6 7 7 8 8 8 8 7 6 6 7 7 6 6 6 7 7 6 6 6 7 8 9 10 9 8 8 7 7 8 9 10 9 7 5 6 9 10 8 6 5 7 9 10 9 11 15 16 13 12 13 17 18 19 20 21 nan
nan 8 8 8 7 7 6 7 8 8 8 8 7 7 7 8 8 8 7 7 8 8 6 4 6 8 8 7 4 4 4 5 7 9 10 9 9 9 9 7 8 9 10 9 8 6 5 5 9 9 8 5 8 9 9 8 8 10 14 18 15 12 10 11 15 16 16 15 nan
nan 7 7 8 9 8 8 7 7 8 8 8 7 7 7 8 7 6 6 7 7 5 2 3 6 7 7 4 4 5 6 8 11 12 11 9 10 11 10 8 9 9 10 10 9 8 8 8 9 9 9 11 12 10 6 3 6 8 9 11 11 11 11 9 11 11 11 10 nan
nan 7 7 9 9 7 7 6 6 7 7 7 5 5 5 5 4 3 3 4 3 3 5 9 9 8 6 6 8 9 10 12 11 10 8 10 10 10 9 10 10 9 9 9 9 9 10 11 10 10 10 12 12 9 7 7 8 9 7 6 8 9 10 7 9 10 9 5 nan
nan 8 8 7 7 6 5 5 6 6 6 6 5 4 3 2 1 1 2 4 6 8 11 13 9 6 5 7 9 9 10 9 8 8 9 10 8 8 9 10 10 9 8 8 9 10 12 12 9 9 9 10 12 13 12 9 7 6 6 4 6 7 9 10 8 9 9 6 nan
nan 7 7 6 6 5 5 5 5 5 6 5 4 4 4 3 3 4 7 8 9 9 10 8 5 4 5 6 7 8 9 9 9 9 10 9 8 9 10 11 11 11 11 11 11 10 9 11 10 9 9 9 9 12 13 10 5 4 4 4 4 4 6 9 6 6 7 10 nan
nan 5 5 5 5 5 4 4 5 5 4 3 4 4 6 7 8 9 11 11 10 8 7 5 5 7 8 8 8 9 10 11 11 10 10 9 10 10 11 12 12 12 13 13 13 12 9 9 8 7 6 6 4 5 7 9 7 6 6 10 7 4 1 2 2 2 4 10 nan
nan 5 5 5 4 4 4 4 5 5 5 6 6 7 8 9 9 10 10 9 7 6 5 5 6 8 10 11 11 11 10 11 12 11 10 10 10 10 9 9 10 9 10 10 12 15 15 12 8 4 2 2 2 2 4 7 8 7 5 7 6 4 1 0 2 4 6 9 nan
nan 5 5 5 4 4 5 6 7 8 8 7 8 9 9 9 8 8 7 5 4 4 6 6 7 9 11 13 12 11 10 9 9 9 9 9 8 8 8 7 7 7 7 7 10 14 16 12 8 5 3 1 7 10 11 9 9 8 5 1 2 4 6 3 4 7 10 10 nan
nan 4 4 5 5 5 6 7 8 8 8 8 8 9 10 9 8 7 7 5 6 8 10 10 10 10 11 11 11 11 10 9 7 8 9 9 9 9 9 8 8 9 9 10 11 11 11 8 7 7 7 4 8 11 12 10 10 10 8 4 4 6 8 7 5 5 6 7 nan
nan 5 6 6 6 6 7 7 8 8 8 7 8 9 9 9 9 9 9 9 11 11 11 10 12 13 12 9 9 8 8 9 8 8 8 9 10 10 10 11 11 11 12 14 12 9 6 6 7 8 9 9 5 5 6 9 10 11 10 10 8 8 8 9 8 5 4 3 nan
nan 6 6 6 6 7 7 8 8 8 7 7 8 9 9 9 10 11 11 11 11 10 10 11 13 12 10 8 7 6 6 7 8 8 8 8 9 9 10 11 11 11 12 13 11 8 6 5 7 9 9 9 5 4 5 9 9 10 11 11 10 9 9 10 9 8 8 7 nan
nan 7 6 6 6 6 7 7 8 8 7 8 8 8 9 10 10 11 10 10 11 11 11 10 10 9 8 8 8 8 8 8 9 10 10 10 10 10 10 9 10 10 9 8 8 9 9 8 9 10 10 10 9 8 8 9 9 9 9 10 10 10 9 9 9 9 10 10 nan
nan 7 6 6 5 5 5 7 7 7 7 7 7 7 9 9 10 10 10 10 12 11 9 7 7 8 9 10 11 11 12 11 11 11 12 11 11 10 9 9 10 9 8 7 8 8 9 10 11 11 10 10 11 11 10 10 10 10 9 9 9 9 9 9 10 9 9 10 nan
nan 6 6 5 4 4 4 5 4 4 4 5 7 8 9 10 9 9 9 10 9 7 5 6 7 7 8 8 11 13 13 13 12 11 11 10 9 9 9 9 9 9 9 10 9 9 9 9 9 10 11 11 12 11 11 11 11 11 10 10 10 10 10 10 10 11 11 11 nan
nan 6 5 4 4 4 4 4 4 4 5 7 9 10 9 8 7 7 8 8 6 5 5 8 8 7 7 7 9 11 11 10 9 8 8 7 8 9 9 9 10 10 10 11 10 10 9 9 9 10 11 12 12 12 12 12 12 12 12 12 12 12 12 12 11 12 13 13 nan
nan 5 4 3 4 5 6 7 8 8 9 10 10 9 7 7 7 7 7 7 7 7 8 9 9 8 8 8 8 8 8 9 8 8 7 8 9 9 9 10 10 10 10 10 11 11 11 11 11 11 10 11 11 11 11 12 12 12 13 15 15 14 14 13 13 12 12 12 nan
nan 4 4 5 6 7 8 9 9 10 10 9 8 8 7 8 8 7 7 7 7 8 9 9 9 8 8 9 8 8 8 10 9 10 10 10 10 9 10 11 11 11 12 12 12 12 12 12 12 12 12 11 11 11 12 13 13 12 13 15 15 14 13 12 12 11 11 11 nan
nan 5 6 7 8 9 9 9 9 9 9 8 8 9 9 9 9 9 8 8 8 9 9 9 8 8 8 9 9 10 11 10 9 10 11 12 11 11 12 12 12 12 12 12 11 12 12 12 12 13 13 14 14 14 14 14 13 13 13 11 10 10 10 10 11 11 10 10 nan
nan 6 8 9 9 9 9 8 9 9 9 9 9 10 10 10 9 9 9 9 10 10 10 11 11 10 10 10 10 10 10 8 8 9 10 11 12 11 12 12 11 11 11 12 12 13 14 15 14 15 15 16 15 14 14 13 13 14 13 10 9 10 11 12 12 12 12 11 nan
nan 8 9 10 8 8 8 8 8 8 9 9 9 9 10 10 9 9 10 11 11 10 11 13 13 11 10 10 10 10 9 7 7 8 9 9 9 9 10 11 12 12 14 16 16 15 16 18 18 17 16 15 15 15 15 14 13 13 13 12 12 13 14 14 13 13 13 12 nan
nan 8 9 8 6 7 8 8 8 8 8 9 9 9 10 10 10 11 11 11 10 10 11 10 9 9 11 12 11 11 10 9 9 9 9 9 9 9 11 13 14 16 18 16 11 8 9 11 13 15 15 14 14 14 14 13 11 11 11 12 13 13 13 13 12 12 12 11 nan
nan 7 7 6 6 7 7 7 8 8 8 9 9 9 10 10 11 11 10 10 10 10 10 8 9 11 13 14 13 12 12 12 12 11 10 10 9 10 12 14 16 17 17 10 4 3 3 1 2 4 8 11 11 11 12 12 11 10 9 10 11 11 12 12 12 12 12 13 nan
nan 7 7 6 6 6 7 8 8 9 9 9 9 9 9 11 11 10 9 10 10 10 11 12 13 14 14 13 11 11 12 13 12 10 9 9 9 10 11 13 14 14 11 4 3 4 5 3 -0 -1 0 5 8 10 11 13 12 11 10 9 10 10 10 10 11 11 12 13 nan
nan 7 7 7 6 6 7 8 9 9 9 8 8 9 10 10 10 8 9 10 10 12 14 15 15 16 16 14 11 10 10 9 9 9 10 10 10 10 11 13 12 10 5 0 2 5 6 7 6 3 2 3 7 9 10 10 11 12 13 14 13 11 10 10 12 13 13 12 nan
nan 7 7 6 7 7 7 8 8 8 8 8 9 10 9 9 9 9 10 10 11 13 16 16 17 17 15 11 9 8 8 7 9 11 13 12 10 11 12 11 9 4 -0 -1 3 6 7 8 9 9 6 3 9 13 14 12 14 15 17 17 17 15 14 14 15 16 16 14 nan
nan 7 7 7 7 7 7 8 8 8 9 10 10 10 10 10 10 10 10 10 11 13 14 15 13 10 6 3 5 8 10 12 13 12 11 10 10 10 10 9 7 5 3 3 7 8 9 10 11 11 10 7 8 11 14 15 14 14 15 15 14 13 12 12 10 10 12 14 nan
nan 7 7 7 7 7 8 8 8 9 11 11 9 9 10 10 10 10 10 11 12 13 11 8 5 2 1 3 7 10 11 12 11 10 9 9 9 9 9 9 8 7 6 7 9 10 10 11 11 12 12 12 10 10 11 10 9 10 11 11 9 8 7 8 7 6 6 8 nan
nan 7 7 7 7 8 7 8 9 10 10 9 8 9 10 10 9 10 11 12 12 11 8 5 4 4 6 8 9 9 9 9 9 9 9 9 9 9 9 9 9 9 8 8 9 10 11 11 11 11 11 13 15 13 9 8 7 8 7 5 5 5 6 10 12 11 7 4 nan
nan 7 7 7 8 8 8 8 10 10 9 8 9 10 10 9 9 10 11 12 12 10 9 9 9 10 11 11 10 9 9 10 10 9 8 8 8 9 10 12 14 13 9 8 10 10 10 10 10 10 10 13 15 13 9 8 11 12 11 8 9 8 7 6 9 11 10 8 nan
nan 7 7 7 8 8 8 9 10 10 10 10 10 10 10 10 10 10 11 13 12 11 11 11 12 12 12 12 11 11 12 13 11 9 8 8 9 10 11 15 18 14 8 7 8 9 9 9 9 9 10 14 19 17 14 11 13 13 13 13 14 15 13 8 5 8 10 10 nan
nan 7 7 7 8 8 9 9 10 10 10 10 10 10 10 10 10 11 12 12 11 11 11 12 12 12 12 12 11 11 12 11 9 9 9 10 11 11 12 14 12 6 2 4 6 8 8 9 9 10 12 20 25 22 17 13 12 10 9 9 11 13 14 14 11 10 11 11 nan
nan 8 8 8 8 8 8 9 9 9 10 10 10 9 10 10 10 11 12 11 10 10 10 11 11 11 11 10 11 11 10 8 8 9 10 11 11 11 10 9 3 -0 1 5 8 9 10 10 10 11 15 25 26 21 17 17 16 13 10 9 11 11 11 12 14 14 14 15 nan
nan 9 9 8 8 8 8 9 9 9 10 10 10 9 9 10 11 12 11 11 11 10 10 11 11 10 10 10 11 11 10 9 9 10 11 10 10 10 10 9 5 4 6 9 11 11 10 11 10 12 18 26 23 17 15 18 18 16 15 14 13 13 14 16 16 16 15 15 nan
nan 9 9 9 8 8 9 9 9 9 10 9 9 9 9 10 12 12 12 12 11 10 11 11 10 10 10 11 10 9 8 9 10 10 10 10 10 10 10 9 8 9 11 11 11 11 10 10 10 13 19 22 16 13 14 16 15 15 16 18 17 17 17 20 22 22 19 15 nan
nan 9 9 9 9 9 9 9 9 9 9 9 9 9 10 12 13 13 13 12 10 10 11 11 10 10 10 10 11 9 9 9 10 10 11 11 10 10 9 9 10 11 11 10 9 10 10 10 11 12 16 16 13 14 15 15 12 11 14 17 18 18 18 18 21 23 23 19 nan
nan 9 10 9 9 9 9 9 9 9 10 9 9 9 10 12 13 11 11 10 10 10 11 11 10 10 10 11 12 10 10 10 11 11 11 11 9 8 8 10 10 10 8 8 9 10 11 11 11 12 15 16 16 17 17 14 11 11 12 14 16 19 19 17 16 18 21 23 nan
nan 10 10 10 10 10 9 9 9 10 10 9 8 9 11 12 11 10 11 11 9 11 12 12 10 10 10 11 12 11 10 10 11 11 11 10 9 9 11 13 11 10 9 10 11 12 11 11 11 12 16 20 18 17 16 13 12 12 13 13 15 17 19 17 15 15 16 21 nan
nan nan nan nan nan nan nan nan nan nan nan nan nan nan nan nan nan nan nan nan nan nan nan nan nan nan nan nan nan nan nan nan nan nan nan nan nan nan nan nan nan nan nan nan nan nan nan nan nan nan nan nan nan nan nan nan nan nan nan nan nan nan nan nan nan nan nan nan nan
CAPE
nan nan nan nan nan nan nan nan nan nan nan nan nan nan nan nan nan nan nan nan nan nan nan nan nan nan nan nan nan nan nan nan nan nan nan nan nan 2 2 1 2 2 2 0 nan nan nan 0 nan nan nan nan nan 2 2 29 28 1 1 2 nan 5 5 11 13 13 17 17 10
nan nan nan nan nan nan nan nan nan nan nan nan nan nan nan nan nan nan nan nan nan nan nan nan nan nan nan nan nan nan nan nan nan nan nan nan 2 6 6 1 4 12 12 19 9 9 0 3 0 0 nan nan nan nan nan 70 89 18 18 14 4 5 5 3 5 5 14 14 15
nan nan nan nan nan nan nan nan nan nan nan nan nan nan nan nan nan nan nan nan nan nan nan nan nan nan nan nan nan nan nan nan nan nan nan nan nan nan nan nan nan 3 3 10 19 19 6 9 0 0 nan nan nan nan nan 0 0 6 6 17 12 13 13 8 10 10 12 10 21
nan nan nan nan nan nan nan nan nan nan nan nan nan nan nan nan nan nan nan nan nan nan nan nan 8 7 7 3 nan nan nan nan nan nan nan nan nan nan nan nan nan 0 0 8 17 17 24 12 1 1 nan 2 1 nan nan nan 0 nan nan 10 13 18 18 18 21 21 15 14 22
nan nan nan nan nan nan nan nan nan nan nan nan nan nan nan nan nan nan nan nan nan nan nan nan 9 12 12 nan nan nan nan nan nan nan nan nan nan nan nan nan nan nan nan 4 15 15 37 20 0 0 2 4 0 0 0 3 1 3 3 5 13 14 14 20 25 25 26 20 24
nan nan nan nan nan nan nan nan nan nan nan nan nan nan nan nan nan nan nan nan nan nan nan nan nan nan nan nan nan nan nan nan nan nan nan nan nan nan nan nan 0 3 3 5 18 18 53 38 0 0 1 1 3 5 5 3 nan 6 6 5 6 12 12 18 24 24 33 30 34
nan nan nan nan nan nan nan nan nan nan nan nan nan nan nan nan nan nan nan nan nan nan nan nan nan nan nan nan nan nan nan nan nan nan nan nan nan nan nan nan 2 3 3 4 12 12 22 46 3 3 1 0 0 21 21 11 1 5 5 4 2 13 13 45 36 36 46 61 62
nan nan nan nan nan nan nan nan nan nan nan nan nan nan nan nan nan nan nan nan nan nan nan nan nan nan nan nan nan nan nan nan nan nan nan nan nan nan nan nan nan 3 3 6 11 11 19 27 11 11 11 10 2 6 6 40 34 27 27 21 2 28 28 63 111 111 81 104 126
nan nan nan nan nan nan nan nan nan nan nan nan nan nan nan nan nan nan nan nan nan nan nan nan nan nan nan nan nan nan nan nan nan nan nan nan nan nan nan nan 0 1 1 5 6 6 26 16 16 16 20 12 5 28 28 67 84 75 75 23 11 11 11 60 123 123 88 113 171
nan nan nan nan nan nan nan nan nan nan nan nan nan nan nan nan nan nan nan nan nan nan nan nan nan nan nan nan nan nan 0 0 0 0 0 0 1 2 2 1 2 0 0 2 4 4 5 7 10 10 13 13 22 39 39 77 89 91 91 17 26 37 37 39 45 45 56 107 178
nan nan nan nan nan nan nan nan nan nan nan nan nan nan nan nan nan nan nan nan nan nan nan nan nan nan nan nan 0 0 0 nan nan nan nan nan nan nan nan nan nan nan nan nan nan nan 0 nan 1 1 14 1 8 34 34 54 70 83 83 33 50 67 67 25 29 29 45 95 149
nan nan nan nan nan nan nan nan nan nan nan nan nan nan nan nan nan nan nan nan nan nan nan nan nan nan nan nan nan nan nan nan nan nan nan nan nan nan nan nan nan nan nan nan nan nan nan nan 0 0 1 nan 2 12 12 21 31 48 48 58 44 45 45 36 35 35 37 58 127
nan nan nan nan nan nan nan nan nan nan nan nan nan nan nan nan nan nan nan nan nan nan nan nan nan nan nan nan nan nan nan nan nan nan nan nan nan nan nan nan nan nan nan nan nan nan nan nan 0 0 nan nan 3 9 9 13 17 23 23 36 42 32 32 37 35 35 35 41 64
nan nan nan nan nan nan nan nan nan nan nan nan nan nan nan nan nan nan nan nan nan nan nan nan nan nan nan nan nan nan nan nan nan nan nan nan nan nan nan nan nan nan nan nan 0 0 nan nan nan nan nan 0 1 5 5 9 14 16 16 17 23 29 29 34 41 41 46 56 58
nan nan nan nan nan nan nan nan nan nan nan nan nan nan nan nan nan nan nan nan nan nan nan nan nan nan nan nan nan nan nan nan nan nan nan nan nan nan nan nan nan nan nan nan 1 1 0 nan nan nan 0 2 5 7 7 10 15 16 16 19 19 23 23 28 39 39 51 65 69
nan nan nan nan nan nan nan nan nan nan nan nan nan nan nan nan nan nan nan nan nan nan nan nan nan nan nan nan nan nan nan nan nan nan nan nan nan nan nan nan nan nan nan nan 0 0 4 0 0 0 2 4 3 5 5 12 16 22 22 25 25 26 26 31 38 38 45 56 64
nan nan nan nan nan nan nan nan nan nan nan nan nan nan nan nan nan nan nan nan nan nan nan nan nan nan nan nan nan nan nan nan nan nan nan nan nan nan nan nan nan nan nan nan 0 0 0 4 9 9 12 13 12 10 10 17 21 25 25 28 32 33 33 25 33 33 41 49 47
nan nan nan nan nan nan nan nan nan nan nan nan nan nan nan nan nan nan nan nan 0 2 2 2 2 0 0 nan nan nan nan nan nan nan nan nan nan nan nan nan nan nan nan nan 1 1 2 4 13 13 20 25 28 32 32 33 35 39 39 39 42 39 39 40 39 39 35 34 29
nan nan nan nan nan nan nan nan nan nan nan nan nan nan nan nan nan nan nan nan 0 2 2 2 1 0 0 nan 0 0 nan nan nan nan nan nan nan nan nan nan nan nan nan 1 4 4 8 15 21 21 24 30 34 37 37 39 37 35 35 34 33 31 31 29 27 27 25 27 31
nan nan nan nan nan nan nan nan nan nan nan nan nan nan nan nan nan nan nan nan 0 2 2 0 0 nan nan nan nan nan nan nan nan nan nan nan nan nan nan nan nan 1 1 4 10 10 14 16 25 25 30 31 29 29 29 28 28 26 26 22 25 26 26 23 21 21 22 23 26
nan nan nan nan nan nan nan nan nan nan nan nan nan nan nan nan 0 1 1 1 0 0 0 nan nan nan nan nan nan nan nan nan nan nan nan nan nan nan nan 1 3 4 4 9 14 14 19 22 24 24 24 23 19 18 18 17 18 23 23 18 20 20 20 20 21 21 21 17 20
nan nan nan nan nan nan nan nan nan nan nan nan nan 0 0 2 2 3 3 3 0 nan nan nan nan nan nan nan nan nan nan nan 0 1 1 2 2 3 3 5 9 14 14 19 24 24 26 23 18 18 16 15 16 17 17 19 21 19 19 20 22 24 24 25 23 23 23 25 20
nan nan nan nan nan nan nan nan nan nan nan nan nan 1 1 5 6 3 3 1 1 0 0 nan nan nan nan nan nan nan 0 1 1 2 2 4 8 12 12 10 14 16 16 16 21 21 23 17 15 15 14 15 21 21 21 19 21 23 23 24 26 30 30 34 29 29 29 31 26
nan nan nan nan nan nan nan nan nan nan nan nan nan 0 0 4 5 6 6 8 10 13 13 2 1 0 0 0 1 1 1 1 1 3 3 6 10 13 13 15 14 10 10 16 14 14 13 7 8 8 9 13 16 17 17 17 18 19 19 19 22 27 27 33 42 42 44 40 27
nan nan nan nan nan nan nan nan nan nan nan nan nan nan nan 1 2 5 5 9 8 7 7 7 10 7 7 6 5 5 2 2 3 6 6 9 12 16 16 13 9 12 12 8 5 5 3 4 7 7 7 8 11 14 14 16 27 22 22 20 20 21 21 29 37 37 36 37 38
nan nan nan nan nan nan nan nan nan nan nan nan nan nan nan nan nan 2 2 4 4 5 5 7 10 7 7 12 13 13 7 2 4 9 9 11 18 14 14 12 15 9 9 6 4 4 5 10 11 11 7 10 11 10 10 10 22 30 30 29 23 21 21 22 24 24 27 26 31
nan nan nan nan nan nan nan nan nan nan nan nan nan nan nan nan nan nan nan 1 3 5 5 8 9 0 0 8 13 13 15 5 8 13 13 14 19 16 16 9 12 8 8 6 5 5 7 12 14 14 13 13 16 14 14 10 19 31 31 27 24 19 19 18 23 23 23 21 29
nan nan nan nan nan nan nan nan nan nan nan nan nan nan nan nan nan nan nan nan 2 3 3 4 3 0 0 nan 2 2 13 12 9 18 18 31 26 18 18 14 13 10 10 7 8 8 9 14 16 16 16 9 16 20 20 16 15 23 23 32 20 21 21 21 23 23 24 25 27
nan nan nan nan nan nan nan nan nan nan nan nan nan nan nan nan nan nan nan nan nan nan nan nan nan nan nan nan nan nan 2 5 15 18 18 33 36 25 25 16 10 7 7 7 10 10 13 15 16 16 16 16 12 15 15 14 14 14 14 15 16 18 18 19 21 21 21 23 24
nan nan nan nan nan nan nan nan nan nan nan nan nan nan nan nan nan nan nan nan nan nan nan nan nan nan nan nan nan nan nan nan 9 18 18 36 32 28 28 10 10 11 11 8 12 12 14 15 16 16 14 14 7 10 10 10 12 14 14 12 15 18 18 15 16 16 18 16 21
nan nan nan nan nan nan nan nan nan nan nan nan nan nan nan nan nan nan nan nan nan nan nan nan nan nan nan nan nan nan nan nan 2 20 20 33 26 13 13 6 11 10 10 9 11 11 13 15 16 16 14 11 5 9 9 10 10 10 10 13 15 16 16 15 14 14 13 12 14
nan nan nan nan nan nan nan nan nan nan nan nan nan nan nan nan nan nan nan nan nan nan nan nan nan nan nan nan nan nan nan nan 4 14 14 20 21 12 12 11 12 8 8 9 10 10 12 14 14 14 13 9 3 9 9 9 10 10 10 13 13 14 14 8 9 9 9 8 9
nan nan nan nan nan nan nan nan nan nan nan nan nan nan nan nan nan nan nan nan nan nan nan nan nan nan nan nan nan nan nan 0 15 13 13 11 9 6 6 6 5 7 7 8 10 10 11 13 12 12 10 7 2 7 7 10 6 12 12 13 12 13 13 14 8 8 8 7 7
nan nan nan nan nan nan nan nan nan nan nan nan nan nan nan nan nan nan nan nan nan nan nan nan nan nan nan nan nan nan 0 12 17 16 16 7 5 5 5 7 9 9 9 9 10 10 10 10 10 10 8 5 3 6 6 7 5 8 8 9 8 11 11 11 11 11 8 7 5
nan nan nan nan nan nan nan nan nan nan nan nan nan nan nan nan nan nan nan nan nan nan nan nan nan nan nan nan nan nan 4 22 25 19 19 13 10 8 8 7 8 8 8 8 8 8 8 8 7 7 7 3 2 7 7 9 9 10 10 12 11 11 11 9 10 10 9 11 14
nan 2 2 1 nan nan nan nan nan nan nan nan nan nan nan nan nan nan nan nan nan nan nan nan nan nan nan nan 6 6 10 23 24 24 24 20 15 10 10 8 6 9 9 7 7 7 7 6 5 5 4 3 4 8 8 8 10 16 16 17 18 19 19 15 17 17 14 10 10
nan 4 4 1 nan nan nan nan nan nan nan nan nan nan nan nan nan nan nan nan nan nan nan nan nan nan nan nan 4 4 2 3 16 23 23 22 20 13 13 9 5 6 6 6 5 5 6 4 3 3 3 4 5 7 7 7 9 16 16 18 17 20 20 17 22 22 22 13 14
nan 0 0 nan nan nan nan nan nan nan nan nan nan nan nan nan nan nan nan nan nan nan nan nan nan nan nan nan 2 2 4 5 12 21 21 22 19 15 15 9 9 10 10 6 5 5 5 3 2 2 2 3 5 5 5 8 15 17 17 15 16 20 20 17 18 18 26 24 7
nan nan nan nan nan nan nan nan nan nan nan nan nan nan nan nan nan nan nan nan nan nan nan nan nan nan nan 3 2 2 12 9 9 16 16 22 22 15 15 10 15 14 14 7 3 3 2 2 2 2 2 2 5 6 6 8 20 21 21 18 20 24 24 19 20 20 26 27 12
nan nan nan nan nan nan nan nan nan nan nan nan nan nan nan nan nan nan nan nan nan nan nan nan nan 0 0 0 1 1 7 8 13 16 16 20 20 14 14 14 16 10 10 5 1 1 1 2 3 3 4 2 3 7 7 19 27 28 28 28 30 37 37 37 43 43 47 48 23
nan nan nan nan nan nan nan nan nan nan nan nan nan nan nan nan nan nan nan nan nan nan nan nan nan nan nan 1 2 2 9 9 8 16 16 16 15 15 15 20 19 13 13 6 2 2 2 3 4 4 5 2 12 20 20 29 35 43 43 41 39 41 41 58 58 58 53 56 46